Total_Precipitation_Accumulation
1.45 1.54 1.60 1.59 1.60 1.66 1.74 1.89 2.05 1.95 1.75 1.52 1.49 1.43 1.41 1.39 1.47 1.28 1.28 1.22 1.16 1.22 1.24 1.27 1.34 1.49 1.55 1.45 1.35 1.28 1.28 1.36 1.50 1.65 1.88 2.15 2.41 2.71
1.32 1.30 1.31 1.29 1.34 1.39 1.50 1.62 1.78 1.90 1.78 1.45 1.40 1.47 1.48 1.37 1.52 1.38 1.33 1.27 1.21 1.41 1.56 1.51 1.48 1.66 1.80 1.75 1.56 1.42 1.36 1.36 1.41 1.47 1.57 1.77 2.01 2.25
1.08 1.08 1.10 1.16 1.24 1.25 1.28 1.43 1.64 1.82 1.84 1.50 1.37 1.45 1.59 1.55 1.55 1.49 1.39 1.34 1.37 1.74 1.93 2.13 1.89 1.79 1.90 1.89 1.78 1.58 1.43 1.38 1.44 1.53 1.63 1.74 1.82 1.91
0.99 1.05 1.05 1.08 1.13 1.20 1.26 1.34 1.48 1.70 1.86 1.74 1.52 1.53 1.59 1.60 1.64 1.62 1.41 1.26 1.31 1.75 2.04 2.34 2.30 2.06 2.08 1.92 1.77 1.59 1.47 1.40 1.43 1.49 1.56 1.62 1.68 1.76
0.93 0.99 1.05 1.16 1.15 1.17 1.24 1.29 1.40 1.53 1.81 1.85 1.66 1.63 1.69 1.74 1.86 1.72 1.54 1.50 1.25 1.50 1.91 2.25 2.41 2.43 2.50 2.36 2.05 1.70 1.48 1.35 1.27 1.30 1.37 1.44 1.45 1.45
0.92 0.98 1.02 1.15 1.23 1.26 1.26 1.30 1.36 1.50 1.69 1.85 1.79 1.75 1.80 1.88 1.92 1.86 1.73 1.58 1.42 1.34 1.77 2.24 2.57 2.60 2.76 2.84 2.54 2.07 1.67 1.41 1.26 1.19 1.13 1.11 1.17 1.17
0.87 0.89 0.92 1.04 1.14 1.13 1.06 1.10 1.27 1.50 1.59 1.77 1.81 1.78 1.77 1.90 1.87 1.67 1.61 1.54 1.38 1.30 1.52 1.91 2.60 2.92 2.95 2.99 2.86 2.35 1.88 1.56 1.34 1.21 1.13 1.07 1.06 1.08
0.84 0.83 0.80 0.80 0.80 0.82 0.87 0.93 1.08 1.35 1.67 1.88 1.83 1.77 1.65 1.65 1.71 1.65 1.65 1.66 1.58 1.28 1.26 1.53 2.12 2.91 3.15 3.08 2.96 2.35 1.80 1.48 1.34 1.22 1.17 1.14 1.11 1.12
0.91 0.89 0.71 0.62 0.73 0.79 0.85 0.89 1.02 1.20 1.50 1.85 1.93 1.71 1.66 1.63 1.70 1.69 1.74 1.79 1.66 1.33 1.35 1.60 1.96 2.65 2.84 2.82 2.71 2.06 1.62 1.36 1.22 1.15 1.13 1.11 1.06 1.08
0.85 0.87 0.88 0.82 0.78 0.87 0.94 1.01 1.13 1.25 1.37 1.49 1.78 1.60 1.41 1.43 1.53 1.59 1.69 1.69 1.59 1.40 1.43 1.71 1.96 2.42 2.42 2.50 2.39 1.89 1.51 1.32 1.16 1.05 1.02 1.03 1.01 1.03
0.75 0.74 0.74 0.77 0.85 1.02 1.15 1.34 1.45 1.55 1.46 1.62 1.79 1.74 1.60 1.54 1.43 1.50 1.73 1.77 1.67 1.50 1.49 1.73 1.89 1.99 2.12 2.21 1.99 1.77 1.49 1.31 1.18 1.07 1.00 0.96 0.92 0.97
0.79 0.77 0.70 0.66 0.78 0.96 1.21 1.50 1.65 1.71 1.58 1.69 1.96 2.01 1.84 1.84 1.81 1.70 1.82 1.86 1.78 1.70 1.47 1.57 1.76 1.76 1.98 1.94 1.78 1.64 1.56 1.55 1.38 1.22 1.11 0.97 0.86 0.84
0.78 0.84 0.81 0.73 0.78 1.00 1.22 1.42 1.58 1.61 1.66 1.75 1.78 1.80 1.88 1.93 1.91 1.84 1.80 1.79 1.75 1.67 1.37 1.48 1.70 1.75 1.85 1.85 1.81 1.79 1.73 1.69 1.55 1.49 1.44 1.27 1.07 0.95
0.81 0.84 0.84 0.79 0.83 1.02 1.19 1.45 1.67 1.75 1.73 1.77 1.63 1.53 1.49 1.52 1.60 1.58 1.54 1.51 1.47 1.41 1.33 1.43 1.72 1.88 1.83 1.72 1.87 1.89 1.92 1.98 1.89 1.79 1.70 1.60 1.44 1.35
0.72 0.80 0.81 0.81 0.94 1.24 1.40 1.57 1.74 1.85 1.89 1.76 1.56 1.43 1.30 1.25 1.25 1.33 1.37 1.36 1.28 1.16 1.09 1.25 1.56 1.74 1.78 1.77 1.90 1.94 2.04 2.21 2.16 2.14 1.99 1.83 1.72 1.58
0.71 0.86 0.94 0.97 1.13 1.43 1.63 1.82 1.86 1.78 1.63 1.56 1.47 1.39 1.24 1.18 1.21 1.15 1.18 1.22 1.24 1.21 1.10 1.13 1.38 1.63 1.76 1.67 1.75 1.88 1.98 2.31 2.29 2.12 2.03 2.03 1.95 1.78
0.66 0.85 1.03 1.14 1.31 1.51 1.68 1.74 1.72 1.62 1.51 1.33 1.27 1.31 1.29 1.20 1.18 1.09 1.07 1.10 1.17 1.20 1.17 1.15 1.20 1.34 1.41 1.46 1.62 1.76 1.91 2.12 2.17 2.01 1.90 1.97 2.03 1.90
0.65 0.86 1.02 1.10 1.26 1.47 1.60 1.57 1.47 1.39 1.29 1.19 1.14 1.12 1.11 1.07 1.06 1.03 0.95 0.95 1.03 1.00 0.97 0.98 1.04 1.15 1.18 1.23 1.43 1.61 1.68 1.85 1.86 1.72 1.59 1.67 1.90 1.93
0.63 0.84 0.98 1.10 1.28 1.41 1.42 1.39 1.35 1.26 1.17 1.14 1.11 1.03 0.97 0.94 0.92 0.88 0.87 0.90 0.86 0.82 0.79 0.78 0.85 1.02 1.17 1.36 1.39 1.43 1.54 1.62 1.57 1.48 1.43 1.51 1.76 1.93
0.62 0.81 0.96 1.06 1.16 1.24 1.31 1.34 1.30 1.19 1.10 1.09 1.14 1.10 1.00 0.92 0.85 0.82 0.80 0.76 0.75 0.73 0.72 0.68 0.65 0.75 0.92 1.06 1.24 1.31 1.27 1.29 1.30 1.35 1.32 1.37 1.54 1.62
0.65 0.78 0.88 0.97 1.01 1.01 1.08 1.13 1.13 1.11 1.06 1.03 1.02 1.03 0.97 0.88 0.78 0.70 0.67 0.57 0.57 0.63 0.64 0.59 0.53 0.53 0.64 0.76 0.94 1.04 1.05 1.13 1.10 1.06 1.05 1.12 1.22 1.24
0.64 0.73 0.81 0.86 0.84 0.81 0.80 0.84 0.89 0.93 0.92 0.89 0.87 0.87 0.85 0.76 0.68 0.63 0.61 0.59 0.59 0.54 0.49 0.46 0.47 0.48 0.55 0.71 0.85 0.92 0.91 0.88 0.91 0.91 0.89 0.91 0.96 1.15
0.58 0.62 0.66 0.69 0.67 0.67 0.66 0.68 0.73 0.78 0.79 0.79 0.76 0.74 0.70 0.68 0.60 0.55 0.53 0.50 0.49 0.46 0.46 0.48 0.46 0.45 0.47 0.54 0.64 0.71 0.75 0.78 0.82 0.86 0.89 0.95 0.94 1.00